Terminal Aerodrome Forecast
Issued by NWS Quad Cities IA IL

Home | Current Version | Previous Version | Text Only | Print | Product List | Glossary On
Versions: 1 2 3 4 5 6 7 8 9 10 11 12 13 14 15 16 17
000
FTUS43 KDVN 222320
TAFDBQ
TAF
KDBQ 222320Z 2300/2324 17004KT P6SM BKN200
     FM230600 VRB04KT P6SM BKN150
     FM231600 15010KT P6SM OVC120=

USA.gov is the U.S. government's official web portal to all federal, state and local government web resources and services.